TimeEST,TemperatureF,Dew PointF,Humidity,Sea Level PressureIn,VisibilityMPH,Wind Direction,Wind SpeedMPH,Gust SpeedMPH,PrecipitationIn,Events,Conditions,WindDirDegrees,DateUTC
12:53 AM,73.9,64.0,71,30.27,10.0,ESE,13.8,-,N/A,,Overcast,110,2013-01-28 05:53:00
1:53 AM,73.9,64.0,71,30.26,10.0,East,12.7,-,N/A,,Mostly Cloudy,100,2013-01-28 06:53:00
2:53 AM,73.0,64.0,73,30.25,10.0,East,12.7,-,N/A,,Partly Cloudy,100,2013-01-28 07:53:00
3:53 AM,72.0,63.0,73,30.25,10.0,ESE,9.2,-,N/A,,Partly Cloudy,110,2013-01-28 08:53:00
4:53 AM,71.1,62.1,73,30.25,10.0,East,9.2,-,N/A,,Clear,100,2013-01-28 09:53:00
5:53 AM,71.1,62.1,73,30.26,10.0,East,9.2,-,N/A,,Clear,90,2013-01-28 10:53:00
6:53 AM,71.1,62.1,73,30.27,10.0,East,9.2,-,N/A,,Clear,90,2013-01-28 11:53:00
7:53 AM,73.0,63.0,71,30.29,10.0,East,9.2,-,N/A,,Clear,90,2013-01-28 12:53:00
8:53 AM,75.9,63.0,64,30.30,10.0,East,16.1,-,N/A,,Clear,90,2013-01-28 13:53:00
9:53 AM,77.0,62.1,60,30.32,10.0,ESE,17.3,20.7,N/A,,Clear,110,2013-01-28 14:53:00
10:53 AM,81.0,63.0,54,30.32,10.0,East,12.7,23.0,N/A,,Mostly Cloudy,100,2013-01-28 15:53:00
11:53 AM,79.0,61.0,54,30.32,10.0,ESE,15.0,-,N/A,,Scattered Clouds,110,2013-01-28 16:53:00
12:53 PM,80.1,60.1,50,30.28,10.0,East,15.0,-,N/A,,Clear,100,2013-01-28 17:53:00
1:53 PM,80.1,62.1,54,30.26,10.0,East,13.8,-,N/A,,Partly Cloudy,100,2013-01-28 18:53:00
2:53 PM,81.0,63.0,54,30.25,10.0,ESE,13.8,-,N/A,,Partly Cloudy,110,2013-01-28 19:53:00
3:53 PM,80.1,62.1,54,30.24,10.0,ESE,12.7,20.7,N/A,,Partly Cloudy,120,2013-01-28 20:53:00
4:53 PM,77.0,60.1,56,30.24,10.0,ESE,16.1,-,N/A,,Partly Cloudy,110,2013-01-28 21:53:00
5:53 PM,75.0,62.1,64,30.25,10.0,ESE,12.7,-,N/A,,Mostly Cloudy,110,2013-01-28 22:53:00
6:53 PM,75.0,63.0,66,30.25,10.0,ESE,8.1,-,N/A,,Overcast,120,2013-01-28 23:53:00
7:53 PM,75.0,64.0,69,30.26,10.0,ESE,11.5,-,N/A,,Mostly Cloudy,110,2013-01-29 00:53:00
8:53 PM,73.9,64.9,73,30.26,10.0,ESE,10.4,-,N/A,,Clear,110,2013-01-29 01:53:00
9:53 PM,73.0,64.9,76,30.25,10.0,ESE,8.1,-,N/A,,Partly Cloudy,110,2013-01-29 02:53:00
10:53 PM,73.0,66.0,79,30.26,10.0,East,9.2,-,N/A,,Mostly Cloudy,100,2013-01-29 03:53:00
11:53 PM,73.0,66.0,79,30.25,10.0,ESE,6.9,-,N/A,,Mostly Cloudy,110,2013-01-29 04:53:00